Ellensburg, WA

11:17 PM PDT on March 25, 2017 (GMT -0700)
Bowers

Weather History for KELN - July, 2013

Change the Weather History Date:

Saturday, July 13, 2013

  Actual Average (KYKM) Record (KYKM)
Temperature  
Mean Temperature 69 °F -  
Max Temperature 86 °F 85 °F 105 °F (2002)
Min Temperature 54 °F 52 °F 41 °F (1968)
Cooling Degree Days 4    
Growing Degree Days 19 (Base 50)    
Moisture  
Dew Point 38 °F    
Average Humidity 37    
Maximum Humidity 62    
Minimum Humidity 12    
Precipitation  
Precipitation 0.00 in - - ()
Sea Level Pressure  
Sea Level Pressure 30.07 in    
Wind  
Wind Speed 12 mph (NW)    
Max Wind Speed 21 mph    
Max Gust Speed 26 mph    
Visibility 10 miles    
Events      
Averages and records for this station are not official NWS values.
T = Trace of Precipitation, MM = Missing Value Source: NWS Daily Summary

Daily Weather History Graph

Daily Weather History Graph

Search for Another Location

Airport or City:

Trip Planner

Search our weather history database for the weather conditions in past years. The results will help you decide how hot, cold, wet, or windy it might be!

Date:

Astronomy

Jul. 13, 2013 Rise Set
Actual Time 5:20 AM PDT 8:54 PM PDT
Civil Twilight 4:42 AM PDT 9:32 PM PDT
Nautical Twilight 3:51 AM PDT 10:23 PM PDT
Astronomical Twilight 2:41 AM PDT 11:32 PM PDT
Moon 11:06 AM PDT (7/13) 11:11 PM PDT (7/13)
Length of Visible Light 16h 50m
Length of Day
15h 34m
Waxing Crescent, 26% of the Moon is Illuminated
Jul 13
Waxing Crescent
Jul 15
First Quarter
Jul 22
Full
Jul 29
Last Quarter
Aug 6
New

Hourly Weather History & Observations

Time (PDT) Temp. Dew Point Humidity Pressure Visibility Wind Dir Wind Speed Gust Speed Precip Events Conditions
12:53 AM 57.0 °F 41.0 °F 55% 30.03 in 10.0 mi NNW 17.3 mph 25.3 mph N/A   Clear
1:53 AM 55.0 °F 42.1 °F 62% 30.04 in 10.0 mi NW 15.0 mph 24.2 mph N/A   Clear
2:53 AM 55.0 °F 42.1 °F 62% 30.04 in 10.0 mi NW 11.5 mph - N/A   Clear
3:53 AM 55.0 °F 42.1 °F 62% 30.05 in 10.0 mi NW 13.8 mph 21.9 mph N/A   Clear
4:53 AM 54.0 °F 41.0 °F 62% 30.06 in 10.0 mi NW 11.5 mph 19.6 mph N/A   Clear
5:53 AM 55.0 °F 41.0 °F 59% 30.07 in 10.0 mi NW 15.0 mph - N/A   Clear
6:53 AM 57.9 °F 41.0 °F 53% 30.09 in 10.0 mi NW 20.7 mph 26.5 mph N/A   Clear
7:53 AM 61.0 °F 41.0 °F 48% 30.11 in 10.0 mi NW 16.1 mph 24.2 mph N/A   Clear
8:53 AM 64.9 °F 39.9 °F 40% 30.12 in 10.0 mi NW 15.0 mph - N/A   Clear
9:53 AM 69.1 °F 37.0 °F 31% 30.12 in 10.0 mi NNW 10.4 mph - N/A   Clear
10:53 AM 73.9 °F 35.1 °F 24% 30.11 in 10.0 mi SW 4.6 mph - N/A   Clear
11:53 AM 75.0 °F 36.0 °F 24% 30.11 in 10.0 mi Calm Calm - N/A   Clear
12:53 PM 79.0 °F 36.0 °F 21% 30.10 in 10.0 mi ENE 6.9 mph - N/A   Clear
1:53 PM 81.0 °F 34.0 °F 18% 30.09 in 10.0 mi ESE 4.6 mph - N/A   Clear
2:53 PM 82.9 °F 30.9 °F 15% 30.07 in 10.0 mi Variable 4.6 mph - N/A   Clear
3:53 PM 84.9 °F 27.0 °F 12% 30.05 in 10.0 mi Variable 4.6 mph - N/A   Clear
4:53 PM 84.9 °F 27.0 °F 12% 30.04 in 10.0 mi Calm Calm - N/A   Clear
5:53 PM 84.0 °F 30.0 °F 14% 30.03 in 10.0 mi Calm Calm - N/A   Clear
6:53 PM 82.9 °F 34.0 °F 17% 30.02 in 10.0 mi West 3.5 mph - N/A   Clear
7:53 PM 80.1 °F 39.9 °F 24% 30.03 in 10.0 mi NW 4.6 mph - N/A   Clear
8:53 PM 71.1 °F 44.1 °F 38% 30.04 in 10.0 mi NNW 11.5 mph - N/A   Clear
9:53 PM 69.1 °F 44.1 °F 40% 30.06 in 10.0 mi NNW 12.7 mph - N/A   Clear
10:53 PM 63.0 °F 44.1 °F 50% 30.06 in 10.0 mi WNW 10.4 mph - N/A   Clear
11:53 PM 62.1 °F 45.0 °F 53% 30.06 in 10.0 mi NW 11.5 mph - N/A   Clear